Weather History for KGRI - January, 2013

Change the Weather History Date:

Tuesday, January 8, 2013

  Actual Average Record
Temperature  
Mean Temperature 26 °F 25 °F  
Max Temperature 39 °F 35 °F 68 °F (2003)
Min Temperature 12 °F 14 °F -14 °F (1940)
Degree Days  
Heating Degree Days 40 40  
Month to date heating degree days 320  
Since 1 July heating degree days 2839  
Cooling Degree Days 0 0  
Month to date cooling degree days 0  
Year to date cooling degree days 0  
Moisture  
Dew Point 17 °F    
Average Humidity 83    
Maximum Humidity 95    
Minimum Humidity 67    
Precipitation  
Precipitation 0.00 in 0.02 in 0.35 in (1937)
Month to date precipitation 0.13  
Year to date precipitation 0.13  
Snow  
Snow 0.00 in 0.20 in 4.00 in (1937)
Month to date snowfall 1.5  
Since 1 July snowfall 10.8  
Snow Depth -    
Sea Level Pressure  
Sea Level Pressure 29.93 in    
Wind  
Wind Speed 4 mph (WSW)    
Max Wind Speed 14 mph    
Max Gust Speed -    
Visibility 5 miles    
Events Fog    
T = Trace of Precipitation, MM = Missing Value Source: NWS Daily Summary

Daily Weather History Graph

Daily Weather History Graph

Search for Another Location

Airport or City:

Trip Planner

Search our weather history database for the weather conditions in past years. The results will help you decide how hot, cold, wet, or windy it might be!

Date:

Astronomy

Jan. 08, 2013 Rise Set
Actual Time 7:57 AM CST 5:22 PM CST
Civil Twilight 7:27 AM CST 5:53 PM CST
Nautical Twilight 6:53 AM CST 6:27 PM CST
Astronomical Twilight 6:19 AM CST 7:00 PM CST
Moon 4:32 AM CST (1/8) 2:26 PM CST (1/8)
Length of Visible Light 10h 26m
Length of Day
9h 24m
Waning Crescent, 13% of the Moon is Illuminated
Jan 8
Waning Crescent
Jan 11
New
Jan 18
First Quarter
Jan 26
Full
Feb 3
Last Quarter

Hourly Weather History & Observations

Time (CST) Temp. Windchill Dew Point Humidity Pressure Visibility Wind Dir Wind Speed Gust Speed Precip Events Conditions
12:39 AM 15.8 °F - 12.2 °F 86% 29.90 in 0.2 mi Calm Calm - N/A Fog Light Freezing Fog
12:53 AM 15.1 °F - 14.0 °F 95% 29.97 in 0.2 mi Calm Calm - N/A Fog Light Freezing Fog
1:53 AM 15.1 °F - 12.9 °F 91% 29.96 in 0.2 mi Calm Calm - N/A Fog Light Freezing Fog
2:28 AM 15.8 °F 7.2 °F 12.2 °F 86% 29.88 in 0.2 mi South 5.8 mph - N/A Fog Light Freezing Fog
2:53 AM 16.0 °F 10.4 °F 14.0 °F 92% 29.94 in 0.2 mi South 3.5 mph - N/A Fog Light Freezing Fog
3:07 AM 15.8 °F 7.2 °F 12.2 °F 86% 29.87 in 0.2 mi South 5.8 mph - N/A Fog Light Freezing Fog
3:53 AM 16.0 °F 8.8 °F 12.9 °F 88% 29.92 in 0.2 mi South 4.6 mph - N/A Fog Light Freezing Fog
4:10 AM 15.8 °F - 12.2 °F 86% 29.85 in 0.5 mi Calm Calm - N/A Fog Light Freezing Fog
4:16 AM 15.8 °F 10.2 °F 10.4 °F 79% 29.85 in 2.5 mi NW 3.5 mph - N/A   Overcast
4:23 AM 15.8 °F 10.2 °F 12.2 °F 86% 29.84 in 5.0 mi WNW 3.5 mph - N/A   Overcast
4:35 AM 14.0 °F 8.2 °F 10.4 °F 86% 29.84 in 1.2 mi West 3.5 mph - N/A   Overcast
4:41 AM 14.0 °F 6.5 °F 10.4 °F 86% 29.84 in 0.2 mi West 4.6 mph - N/A Fog Light Freezing Fog
4:48 AM 14.0 °F 6.5 °F 10.4 °F 86% 29.84 in 0.2 mi WNW 4.6 mph - N/A Fog Light Freezing Fog
4:53 AM 14.0 °F 8.2 °F 12.0 °F 92% 29.91 in 0.2 mi West 3.5 mph - N/A Fog Light Freezing Fog
5:53 AM 14.0 °F - 10.9 °F 88% 29.92 in 0.2 mi Calm Calm - N/A Fog Light Freezing Fog
6:36 AM 12.2 °F 4.3 °F 8.6 °F 85% 29.82 in 0.5 mi SSE 4.6 mph - N/A Fog Light Freezing Fog
6:42 AM 12.2 °F 4.3 °F 8.6 °F 85% 29.82 in 1.2 mi South 4.6 mph - N/A   Mostly Cloudy
6:50 AM 14.0 °F 6.5 °F 10.4 °F 86% 29.83 in 3.0 mi SSW 4.6 mph - N/A   Mostly Cloudy
6:53 AM 14.0 °F 6.5 °F 10.9 °F 88% 29.91 in 3.0 mi SSW 4.6 mph - N/A   Mostly Cloudy
6:57 AM 14.0 °F 3.9 °F 10.4 °F 86% 29.83 in 2.5 mi South 6.9 mph - N/A   Scattered Clouds
6:59 AM 14.0 °F 5.1 °F 10.4 °F 86% 29.83 in 2.5 mi SSW 5.8 mph - N/A   Mostly Cloudy
7:06 AM 12.2 °F 6.1 °F 10.4 °F 92% 29.83 in 3.0 mi SSW 3.5 mph - N/A   Scattered Clouds
7:34 AM 12.2 °F 2.9 °F 8.6 °F 85% 29.84 in 2.5 mi West 5.8 mph - N/A   Partly Cloudy
7:46 AM 12.2 °F 4.3 °F 8.6 °F 85% 29.85 in 6.0 mi WSW 4.6 mph - N/A   Mostly Cloudy
7:53 AM 12.2 °F 2.9 °F 10.4 °F 92% 29.85 in 2.0 mi WSW 5.8 mph - N/A   Mostly Cloudy
8:25 AM 15.8 °F 5.1 °F 12.2 °F 86% 29.84 in 1.2 mi West 8.1 mph - N/A   Overcast
8:35 AM 15.8 °F 7.2 °F 12.2 °F 86% 29.84 in 3.0 mi SW 5.8 mph - N/A   Overcast
8:53 AM 16.0 °F 8.8 °F 10.9 °F 81% 29.94 in 3.0 mi SW 4.6 mph - N/A   Haze
9:03 AM 15.8 °F 8.6 °F 12.2 °F 86% 29.86 in 4.0 mi West 4.6 mph - N/A   Scattered Clouds
9:53 AM 24.1 °F 18.2 °F 19.9 °F 84% 29.92 in 5.0 mi SSW 4.6 mph - N/A   Clear
10:53 AM 28.0 °F 20.0 °F 24.1 °F 85% 29.92 in 9.0 mi SW 8.1 mph - N/A   Clear
11:53 AM 30.0 °F 21.1 °F 25.0 °F 82% 29.90 in 10.0 mi WSW 10.4 mph - N/A   Clear
12:53 PM 37.0 °F 28.5 °F 27.0 °F 67% 29.89 in 10.0 mi WSW 13.8 mph - N/A   Clear
1:53 PM 39.0 °F 32.8 °F 28.9 °F 67% 29.91 in 10.0 mi WSW 9.2 mph - N/A   Clear
2:53 PM 39.0 °F 33.4 °F 30.9 °F 73% 29.94 in 10.0 mi West 8.1 mph - N/A   Clear
3:53 PM 39.0 °F 32.8 °F 30.9 °F 73% 29.98 in 10.0 mi WSW 9.2 mph - N/A   Clear
4:53 PM 37.9 °F 32.7 °F 30.9 °F 76% 30.00 in 10.0 mi West 6.9 mph - N/A   Clear
5:53 PM 36.0 °F 29.0 °F 30.9 °F 82% 30.05 in 10.0 mi SW 9.2 mph - N/A   Clear
6:53 PM 34.0 °F 26.6 °F 30.0 °F 85% 30.08 in 10.0 mi WSW 9.2 mph - N/A   Clear
7:53 PM 34.0 °F 26.6 °F 28.9 °F 82% 30.12 in 10.0 mi West 9.2 mph - N/A   Clear
8:53 PM 33.1 °F 26.9 °F 27.0 °F 78% 30.16 in 10.0 mi West 6.9 mph - N/A   Clear
9:53 PM 32.0 °F 25.6 °F 27.0 °F 82% 30.18 in 10.0 mi West 6.9 mph - N/A   Clear
10:53 PM 30.0 °F 21.7 °F 25.0 °F 82% 30.20 in 10.0 mi West 9.2 mph - N/A   Clear
11:53 PM 30.0 °F 21.1 °F 25.0 °F 82% 30.23 in 10.0 mi West 10.4 mph - N/A   Clear